Time,TemperatureF,DewpointF,PressureIn,WindDirection,WindDirectionDegrees,WindSpeedMPH,WindSpeedGustMPH,Humidity,HourlyPrecipIn,Conditions,Clouds,dailyrainin,SoftwareType,DateUTC
2013-02-17 00:06:00,46.3,-99.9,30.07,NE,38,3.0,-999.0,0,-99.99,,,0.00,weatherlink.com 1.10,2013-02-17 08:06:00,
2013-02-17 00:21:00,46.2,-99.9,30.07,NE,47,3.0,-999.0,0,-99.99,,,0.00,weatherlink.com 1.10,2013-02-17 08:21:00,
2013-02-17 00:36:00,46.7,-99.9,30.07,NE,41,4.0,-999.0,0,-99.99,,,0.00,weatherlink.com 1.10,2013-02-17 08:36:00,
2013-02-17 00:51:00,47.0,-99.9,30.07,NE,44,2.0,-999.0,0,-99.99,,,0.00,weatherlink.com 1.10,2013-02-17 08:51:00,
2013-02-17 01:06:00,47.2,-99.9,30.07,NNE,24,3.0,-999.0,0,-99.99,,,0.00,weatherlink.com 1.10,2013-02-17 09:06:00,
2013-02-17 01:21:00,47.4,-99.9,30.07,NNE,26,6.0,-999.0,0,-99.99,,,0.00,weatherlink.com 1.10,2013-02-17 09:21:00,
2013-02-17 01:36:00,47.1,-99.9,30.07,North,360,3.0,-999.0,0,-99.99,,,0.00,weatherlink.com 1.10,2013-02-17 09:36:00,
2013-02-17 01:51:00,46.6,-99.9,30.07,NE,42,2.0,-999.0,0,-99.99,,,0.00,weatherlink.com 1.10,2013-02-17 09:51:00,
2013-02-17 02:06:00,46.0,-99.9,30.06,NE,42,0.0,-999.0,0,-99.99,,,0.00,weatherlink.com 1.10,2013-02-17 10:06:00,
2013-02-17 02:21:00,46.0,-99.9,30.06,NE,43,3.0,-999.0,0,-99.99,,,0.00,weatherlink.com 1.10,2013-02-17 10:21:00,
2013-02-17 02:36:00,45.6,-99.9,30.05,NE,42,3.0,-999.0,0,-99.99,,,0.00,weatherlink.com 1.10,2013-02-17 10:36:00,
2013-02-17 02:51:00,45.7,-99.9,30.05,NE,44,0.0,-999.0,0,-99.99,,,0.00,weatherlink.com 1.10,2013-02-17 10:51:00,
2013-02-17 03:06:00,45.0,-99.9,30.04,NE,44,0.0,-999.0,0,-99.99,,,0.00,weatherlink.com 1.10,2013-02-17 11:06:00,
2013-02-17 03:21:00,44.5,-99.9,30.04,NNE,19,2.0,-999.0,0,-99.99,,,0.00,weatherlink.com 1.10,2013-02-17 11:21:00,
2013-02-17 03:36:00,44.5,-99.9,30.04,NE,35,0.0,-999.0,0,-99.99,,,0.00,weatherlink.com 1.10,2013-02-17 11:36:00,
2013-02-17 03:51:00,44.6,-99.9,30.03,NE,40,2.0,-999.0,0,-99.99,,,0.00,weatherlink.com 1.10,2013-02-17 11:51:00,
2013-02-17 04:06:00,44.5,-99.9,30.04,NNE,22,4.0,-999.0,0,-99.99,,,0.00,weatherlink.com 1.10,2013-02-17 12:06:00,
2013-02-17 04:21:00,44.4,-99.9,30.04,NE,34,0.0,-999.0,0,-99.99,,,0.00,weatherlink.com 1.10,2013-02-17 12:21:00,
2013-02-17 04:36:00,44.3,-99.9,30.04,North,11,1.0,-999.0,0,-99.99,,,0.00,weatherlink.com 1.10,2013-02-17 12:36:00,
2013-02-17 04:51:00,44.4,-99.9,30.04,North,355,0.0,-999.0,0,-99.99,,,0.00,weatherlink.com 1.10,2013-02-17 12:51:00,
2013-02-17 05:06:00,42.8,-99.9,30.04,North,11,0.0,-999.0,0,-99.99,,,0.00,weatherlink.com 1.10,2013-02-17 13:06:00,
2013-02-17 05:21:00,42.2,-99.9,30.04,NE,49,0.0,-999.0,0,-99.99,,,0.00,weatherlink.com 1.10,2013-02-17 13:21:00,
2013-02-17 05:36:00,41.7,-99.9,30.04,NE,49,0.0,-999.0,0,-99.99,,,0.00,weatherlink.com 1.10,2013-02-17 13:36:00,
2013-02-17 05:51:00,42.0,-99.9,30.04,NE,49,0.0,-999.0,0,-99.99,,,0.00,weatherlink.com 1.10,2013-02-17 13:51:00,
2013-02-17 06:06:00,42.0,-99.9,30.05,NE,49,0.0,-999.0,0,-99.99,,,0.00,weatherlink.com 1.10,2013-02-17 14:06:00,
2013-02-17 06:21:00,42.2,-99.9,30.05,NE,49,0.0,-999.0,0,-99.99,,,0.00,weatherlink.com 1.10,2013-02-17 14:21:00,
2013-02-17 06:36:00,42.5,-99.9,30.05,NE,49,0.0,-999.0,0,-99.99,,,0.00,weatherlink.com 1.10,2013-02-17 14:36:00,
2013-02-17 06:51:00,41.2,-99.9,30.05,NE,49,0.0,-999.0,0,-99.99,,,0.00,weatherlink.com 1.10,2013-02-17 14:51:00,
2013-02-17 07:06:00,41.5,-99.9,30.05,NE,49,0.0,-999.0,0,-99.99,,,0.00,weatherlink.com 1.10,2013-02-17 15:06:00,
2013-02-17 07:21:00,41.8,-99.9,30.05,NE,49,2.0,-999.0,0,-99.99,,,0.00,weatherlink.com 1.10,2013-02-17 15:21:00,
2013-02-17 07:36:00,42.3,-99.9,30.05,NE,49,1.0,-999.0,0,-99.99,,,0.00,weatherlink.com 1.10,2013-02-17 15:36:00,
2013-02-17 07:51:00,43.3,-99.9,30.06,NNE,30,0.0,-999.0,0,-99.99,,,0.00,weatherlink.com 1.10,2013-02-17 15:51:00,
2013-02-17 08:06:00,45.0,-7.0,30.06,NE,42,0.0,-999.0,11,-99.99,,,0.00,weatherlink.com 1.10,2013-02-17 16:06:00,
2013-02-17 08:21:00,45.2,0.0,30.06,NW,323,0.0,-999.0,15,-99.99,,,0.00,weatherlink.com 1.10,2013-02-17 16:21:00,
2013-02-17 08:36:00,45.9,-1.0,30.06,North,360,0.0,-999.0,14,-99.99,,,0.00,weatherlink.com 1.10,2013-02-17 16:36:00,
2013-02-17 08:51:00,46.4,-1.0,30.06,North,360,0.0,-999.0,14,-99.99,,,0.00,weatherlink.com 1.10,2013-02-17 16:51:00,
2013-02-17 09:06:00,47.2,0.0,30.06,ENE,63,0.0,-999.0,14,-99.99,,,0.00,weatherlink.com 1.10,2013-02-17 17:06:00,
2013-02-17 09:21:00,49.1,21.0,30.06,NE,36,0.0,-999.0,33,-99.99,,,0.00,weatherlink.com 1.10,2013-02-17 17:21:00,
2013-02-17 09:36:00,50.5,15.0,30.05,WNW,283,0.0,-999.0,24,-99.99,,,0.00,weatherlink.com 1.10,2013-02-17 17:36:00,
2013-02-17 09:51:00,51.8,21.0,30.05,WNW,286,0.0,-999.0,30,-99.99,,,0.00,weatherlink.com 1.10,2013-02-17 17:51:00,
2013-02-17 10:06:00,53.3,26.0,30.05,WSW,252,0.0,-999.0,35,-99.99,,,0.00,weatherlink.com 1.10,2013-02-17 18:06:00,
2013-02-17 10:21:00,53.7,28.0,30.05,WNW,288,0.0,-999.0,38,-99.99,,,0.00,weatherlink.com 1.10,2013-02-17 18:21:00,
2013-02-17 10:36:00,55.7,28.0,30.05,WSW,254,2.0,-999.0,35,-99.99,,,0.00,weatherlink.com 1.10,2013-02-17 18:36:00,
2013-02-17 10:51:00,57.8,35.0,30.05,WSW,237,4.0,-999.0,42,-99.99,,,0.00,weatherlink.com 1.10,2013-02-17 18:51:00,
2013-02-17 11:06:00,59.7,36.0,30.05,West,276,9.0,-999.0,42,-99.99,,,0.00,weatherlink.com 1.10,2013-02-17 19:06:00,
2013-02-17 11:21:00,59.4,36.0,30.05,WNW,290,5.0,-999.0,42,-99.99,,,0.00,weatherlink.com 1.10,2013-02-17 19:21:00,
2013-02-17 11:36:00,59.3,36.0,30.04,West,271,5.0,-999.0,42,-99.99,,,0.00,weatherlink.com 1.10,2013-02-17 19:36:00,
2013-02-17 11:51:00,59.3,35.0,30.04,West,275,5.0,-999.0,41,-99.99,,,0.00,weatherlink.com 1.10,2013-02-17 19:51:00,
2013-02-17 12:06:00,60.6,37.0,30.04,West,274,11.0,-999.0,41,-99.99,,,0.00,weatherlink.com 1.10,2013-02-17 20:06:00,
2013-02-17 12:21:00,61.2,37.0,30.03,WNW,286,10.0,-999.0,41,-99.99,,,0.00,weatherlink.com 1.10,2013-02-17 20:21:00,
2013-02-17 12:36:00,61.2,37.0,30.02,West,259,6.0,-999.0,41,-99.99,,,0.00,weatherlink.com 1.10,2013-02-17 20:36:00,
2013-02-17 12:51:00,61.6,37.0,30.02,WNW,290,2.0,-999.0,41,-99.99,,,0.00,weatherlink.com 1.10,2013-02-17 20:51:00,
2013-02-17 13:06:00,61.2,36.0,30.02,NW,316,4.0,-999.0,39,-99.99,,,0.00,weatherlink.com 1.10,2013-02-17 21:06:00,
2013-02-17 13:21:00,61.6,37.0,30.01,West,259,6.0,-999.0,40,-99.99,,,0.00,weatherlink.com 1.10,2013-02-17 21:21:00,
2013-02-17 13:36:00,62.3,38.0,30.01,WNW,288,5.0,-999.0,40,-99.99,,,0.00,weatherlink.com 1.10,2013-02-17 21:36:00,
2013-02-17 13:51:00,62.3,38.0,30.00,WNW,293,4.0,-999.0,41,-99.99,,,0.00,weatherlink.com 1.10,2013-02-17 21:51:00,
2013-02-17 14:06:00,62.5,38.0,30.00,WNW,302,1.0,-999.0,41,-99.99,,,0.00,weatherlink.com 1.10,2013-02-17 22:06:00,
2013-02-17 14:21:00,62.1,38.0,29.99,West,266,4.0,-999.0,41,-99.99,,,0.00,weatherlink.com 1.10,2013-02-17 22:21:00,
2013-02-17 14:36:00,62.5,38.0,29.99,WSW,257,5.0,-999.0,41,-99.99,,,0.00,weatherlink.com 1.10,2013-02-17 22:36:00,
2013-02-17 14:51:00,62.9,39.0,29.99,WNW,303,3.0,-999.0,41,-99.99,,,0.00,weatherlink.com 1.10,2013-02-17 22:51:00,
2013-02-17 15:06:00,61.5,37.0,29.99,WNW,298,5.0,-999.0,41,-99.99,,,0.00,weatherlink.com 1.10,2013-02-17 23:06:00,
2013-02-17 15:21:00,60.8,37.0,29.99,WNW,290,7.0,-999.0,41,-99.99,,,0.00,weatherlink.com 1.10,2013-02-17 23:21:00,
2013-02-17 15:36:00,60.5,36.0,29.99,West,269,4.0,-999.0,41,-99.99,,,0.00,weatherlink.com 1.10,2013-02-17 23:36:00,
2013-02-17 15:51:00,60.4,36.0,29.98,WNW,286,1.0,-999.0,40,-99.99,,,0.00,weatherlink.com 1.10,2013-02-17 23:51:00,
2013-02-17 16:06:00,60.2,36.0,29.98,West,265,3.0,-999.0,40,-99.99,,,0.00,weatherlink.com 1.10,2013-02-18 00:06:00,
2013-02-17 16:21:00,59.7,34.0,29.98,West,264,6.0,-999.0,38,-99.99,,,0.00,weatherlink.com 1.10,2013-02-18 00:21:00,
2013-02-17 16:36:00,58.3,29.0,29.98,West,270,0.0,-999.0,33,-99.99,,,0.00,weatherlink.com 1.10,2013-02-18 00:36:00,
2013-02-17 16:51:00,58.0,28.0,29.98,SSW,213,3.0,-999.0,32,-99.99,,,0.00,weatherlink.com 1.10,2013-02-18 00:51:00,
2013-02-17 17:06:00,57.3,25.0,29.98,WNW,289,0.0,-999.0,29,-99.99,,,0.00,weatherlink.com 1.10,2013-02-18 01:06:00,
2013-02-17 17:21:00,56.1,28.0,29.98,NNE,32,0.0,-999.0,34,-99.99,,,0.00,weatherlink.com 1.10,2013-02-18 01:21:00,
2013-02-17 17:36:00,54.8,16.0,29.97,NNE,32,0.0,-999.0,22,-99.99,,,0.00,weatherlink.com 1.10,2013-02-18 01:36:00,
2013-02-17 17:51:00,52.7,17.0,29.98,NNE,32,0.0,-999.0,24,-99.99,,,0.00,weatherlink.com 1.10,2013-02-18 01:51:00,
2013-02-17 18:06:00,51.0,3.0,29.98,NNE,32,0.0,-999.0,14,-99.99,,,0.00,weatherlink.com 1.10,2013-02-18 02:06:00,
2013-02-17 18:21:00,49.9,-10.0,29.98,NNE,32,0.0,-999.0,8,-99.99,,,0.00,weatherlink.com 1.10,2013-02-18 02:21:00,
2013-02-17 18:36:00,49.4,-99.9,29.98,NE,38,2.0,-999.0,0,-99.99,,,0.00,weatherlink.com 1.10,2013-02-18 02:36:00,
2013-02-17 18:51:00,48.9,-99.9,29.98,NE,38,3.0,-999.0,0,-99.99,,,0.00,weatherlink.com 1.10,2013-02-18 02:51:00,
2013-02-17 19:06:00,48.4,-99.9,29.98,NNE,31,0.0,-999.0,0,-99.99,,,0.00,weatherlink.com 1.10,2013-02-18 03:06:00,
2013-02-17 19:21:00,47.8,-99.9,29.98,NE,36,0.0,-999.0,0,-99.99,,,0.00,weatherlink.com 1.10,2013-02-18 03:21:00,
2013-02-17 19:36:00,47.2,-99.9,29.99,NE,36,0.0,-999.0,0,-99.99,,,0.00,weatherlink.com 1.10,2013-02-18 03:36:00,
2013-02-17 19:51:00,46.9,-99.9,29.98,NE,49,2.0,-999.0,0,-99.99,,,0.00,weatherlink.com 1.10,2013-02-18 03:51:00,
2013-02-17 20:06:00,46.5,-99.9,29.99,NNE,23,2.0,-999.0,0,-99.99,,,0.00,weatherlink.com 1.10,2013-02-18 04:06:00,
2013-02-17 20:21:00,46.4,-99.9,29.99,NNE,22,0.0,-999.0,0,-99.99,,,0.00,weatherlink.com 1.10,2013-02-18 04:21:00,
2013-02-17 20:36:00,46.2,-99.9,29.99,ENE,57,4.0,-999.0,0,-99.99,,,0.00,weatherlink.com 1.10,2013-02-18 04:36:00,
2013-02-17 20:51:00,45.9,-99.9,29.99,ENE,61,0.0,-999.0,0,-99.99,,,0.00,weatherlink.com 1.10,2013-02-18 04:51:00,
2013-02-17 21:06:00,45.6,-99.9,30.00,ENE,65,5.0,-999.0,0,-99.99,,,0.00,weatherlink.com 1.10,2013-02-18 05:06:00,
2013-02-17 21:21:00,45.4,-99.9,30.00,NE,40,5.0,-999.0,0,-99.99,,,0.00,weatherlink.com 1.10,2013-02-18 05:21:00,
2013-02-17 21:36:00,45.5,-99.9,30.00,ENE,69,3.0,-999.0,0,-99.99,,,0.00,weatherlink.com 1.10,2013-02-18 05:36:00,
2013-02-17 21:51:00,45.4,-99.9,30.00,ENE,59,0.0,-999.0,0,-99.99,,,0.00,weatherlink.com 1.10,2013-02-18 05:51:00,
2013-02-17 22:06:00,45.3,-99.9,30.00,NE,35,3.0,-999.0,0,-99.99,,,0.00,weatherlink.com 1.10,2013-02-18 06:06:00,
2013-02-17 22:21:00,45.1,-99.9,30.01,NE,51,3.0,-999.0,0,-99.99,,,0.00,weatherlink.com 1.10,2013-02-18 06:21:00,
2013-02-17 22:36:00,45.0,-99.9,30.01,ENE,75,4.0,-999.0,0,-99.99,,,0.00,weatherlink.com 1.10,2013-02-18 06:36:00,
2013-02-17 22:51:00,45.0,-99.9,30.00,NE,49,0.0,-999.0,0,-99.99,,,0.00,weatherlink.com 1.10,2013-02-18 06:51:00,
2013-02-17 23:06:00,44.7,-99.9,30.01,NE,56,0.0,-999.0,0,-99.99,,,0.00,weatherlink.com 1.10,2013-02-18 07:06:00,
2013-02-17 23:21:00,44.1,-99.9,30.01,NE,56,0.0,-999.0,0,-99.99,,,0.00,weatherlink.com 1.10,2013-02-18 07:21:00,
2013-02-17 23:36:00,44.2,-99.9,30.01,NNE,30,0.0,-999.0,0,-99.99,,,0.00,weatherlink.com 1.10,2013-02-18 07:36:00,
2013-02-17 23:51:00,44.1,-99.9,30.01,ENE,64,4.0,-999.0,0,-99.99,,,0.00,weatherlink.com 1.10,2013-02-18 07:51:00,